SIA44 WIII-WSSS

Flight info

Callsign SIA44
Flight time 1h 18m
Altitude 36000
Route DOLTA G579 REPOV REPOV2B
Aircraft B77L/H-SDE1E2E3FGHIJ2J3J4J5M1RWXY/LB1D1

Departure

Time 2026-05-07 09:31
Airport Soekarno-Hatta International Airport (WIII)

Arrival

Time 2026-05-07 10:49
Airport Singapore Changi Airport (WSSS)
Time Latitude Longitude Altitude Speed Heading
2026-05-07 09:08 -6.11311 106.67299 34 ft 0 kts 69°
2026-05-07 09:19 -6.11313 106.67292 34 ft 3 kts 69°
2026-05-07 09:19 -6.11324 106.67268 32 ft 4 kts 59°
2026-05-07 09:19 -6.11339 106.67246 31 ft 4 kts 46°
2026-05-07 09:20 -6.11359 106.67229 32 ft 4 kts 32°
2026-05-07 09:20 -6.11372 106.67221 32 ft 0 kts 29°
2026-05-07 09:23 -6.11371 106.67221 34 ft 3 kts 29°
2026-05-07 09:23 -6.11318 106.67211 34 ft 18 kts 346°
2026-05-07 09:24 -6.11242 106.67260 34 ft 18 kts 63°
2026-05-07 09:24 -6.11160 106.67425 34 ft 26 kts 51°
2026-05-07 09:24 -6.11034 106.67406 34 ft 25 kts 310°
2026-05-07 09:24 -6.10992 106.67296 34 ft 17 kts 278°
2026-05-07 09:25 -6.11008 106.67177 34 ft 23 kts 258°
2026-05-07 09:25 -6.11060 106.66971 34 ft 36 kts 251°
2026-05-07 09:25 -6.11162 106.66706 35 ft 47 kts 248°
2026-05-07 09:25 -6.11295 106.66368 36 ft 57 kts 248°
2026-05-07 09:26 -6.11423 106.66054 36 ft 41 kts 248°
2026-05-07 09:26 -6.11546 106.65750 37 ft 43 kts 248°
2026-05-07 09:26 -6.11660 106.65463 38 ft 44 kts 249°
2026-05-07 09:26 -6.11769 106.65185 39 ft 41 kts 248°
2026-05-07 09:27 -6.11871 106.64926 40 ft 39 kts 248°
2026-05-07 09:27 -6.11970 106.64679 41 ft 37 kts 248°
2026-05-07 09:27 -6.12151 106.64226 42 ft 33 kts 248°
2026-05-07 09:28 -6.12216 106.64067 42 ft 23 kts 248°
2026-05-07 09:28 -6.12238 106.63914 43 ft 23 kts 298°
2026-05-07 09:28 -6.12201 106.63884 43 ft 0 kts 339°
2026-05-07 09:29 -6.12128 106.63903 43 ft 25 kts 30°
2026-05-07 09:29 -6.12050 106.63983 42 ft 11 kts 67°
2026-05-07 09:29 -6.12049 106.63988 42 ft 0 kts 68°
2026-05-07 09:30 -6.12035 106.64024 42 ft 26 kts 69°
2026-05-07 09:30 -6.11871 106.64438 41 ft 98 kts 68°
2026-05-07 09:30 -6.11539 106.65268 39 ft 155 kts 68°
2026-05-07 09:30 -6.11068 106.66343 353 ft 171 kts 65°
2026-05-07 09:31 -6.10570 106.67458 757 ft 179 kts 65°
2026-05-07 09:31 -6.10044 106.68561 1238 ft 178 kts 55°
2026-05-07 09:31 -6.09029 106.69237 1648 ft 177 kts 22°
2026-05-07 09:31 -6.07845 106.69730 1919 ft 195 kts 27°
2026-05-07 09:32 -6.06566 106.70381 2106 ft 218 kts 30°
2026-05-07 09:32 -6.05160 106.71172 2339 ft 244 kts 32°
2026-05-07 09:32 -6.03653 106.72090 2815 ft 259 kts 34°
2026-05-07 09:32 -6.02102 106.73076 3483 ft 266 kts 34°
2026-05-07 09:33 -6.00532 106.74086 4258 ft 267 kts 33°
2026-05-07 09:33 -5.98778 106.74723 4833 ft 277 kts
2026-05-07 09:33 -5.96882 106.74463 4996 ft 288 kts 338°
2026-05-07 09:33 -5.95310 106.73223 4999 ft 292 kts 304°
2026-05-07 09:34 -5.94389 106.71423 5009 ft 288 kts 294°
2026-05-07 09:34 -5.93570 106.69578 5008 ft 289 kts 294°
2026-05-07 09:34 -5.92743 106.67741 4997 ft 287 kts 294°
2026-05-07 09:34 -5.91910 106.65916 5001 ft 286 kts 295°
2026-05-07 09:35 -5.91072 106.64100 5003 ft 286 kts 295°
2026-05-07 09:35 -5.90234 106.62291 4996 ft 285 kts 295°
2026-05-07 09:35 -5.89405 106.60505 5098 ft 287 kts 295°
2026-05-07 09:35 -5.88556 106.58685 5830 ft 289 kts 295°
2026-05-07 09:36 -5.87701 106.56850 6590 ft 292 kts 295°
2026-05-07 09:36 -5.86837 106.54997 7331 ft 294 kts 295°
2026-05-07 09:36 -5.85963 106.53121 8028 ft 298 kts 295°
2026-05-07 09:36 -5.85078 106.51222 8762 ft 301 kts 295°
2026-05-07 09:37 -5.84184 106.49304 9471 ft 305 kts 295°
2026-05-07 09:37 -5.83276 106.47358 10161 ft 308 kts 295°
2026-05-07 09:37 -5.82329 106.45381 10562 ft 321 kts 301°
2026-05-07 09:37 -5.80786 106.43686 10692 ft 342 kts 329°
2026-05-07 09:38 -5.78590 106.42642 10852 ft 360 kts 339°
2026-05-07 09:38 -5.76181 106.41682 11087 ft 381 kts 340°
2026-05-07 09:38 -5.73674 106.40688 11660 ft 392 kts 339°
2026-05-07 09:38 -5.71118 106.39661 12405 ft 398 kts 339°
2026-05-07 09:39 -5.68549 106.38609 13221 ft 401 kts 339°
2026-05-07 09:39 -5.65957 106.37532 13985 ft 405 kts 339°
2026-05-07 09:39 -5.63341 106.36432 14666 ft 409 kts 338°
2026-05-07 09:39 -5.60734 106.35328 15320 ft 414 kts 338°
2026-05-07 09:40 -5.58070 106.34196 15991 ft 418 kts 338°
2026-05-07 09:40 -5.55376 106.33048 16646 ft 422 kts 338°
2026-05-07 09:40 -5.52662 106.31889 17289 ft 426 kts 338°
2026-05-07 09:40 -5.49917 106.30718 17911 ft 430 kts 338°
2026-05-07 09:41 -5.47149 106.29537 18481 ft 434 kts 338°
2026-05-07 09:41 -5.44355 106.28345 19025 ft 437 kts 338°
2026-05-07 09:41 -5.41576 106.27160 19567 ft 440 kts 338°
2026-05-07 09:41 -5.38744 106.25952 20105 ft 443 kts 338°
2026-05-07 09:42 -5.35897 106.24739 20640 ft 446 kts 338°
2026-05-07 09:42 -5.33016 106.23511 21143 ft 450 kts 338°
2026-05-07 09:42 -5.30121 106.22277 21645 ft 453 kts 338°
2026-05-07 09:42 -5.27203 106.21033 22135 ft 457 kts 338°
2026-05-07 09:43 -5.24267 106.19783 22621 ft 460 kts 338°
2026-05-07 09:43 -5.21307 106.18522 23097 ft 463 kts 338°
2026-05-07 09:43 -5.18331 106.17254 23524 ft 466 kts 338°
2026-05-07 09:43 -5.15339 106.15980 23900 ft 469 kts 338°
2026-05-07 09:44 -5.12326 106.14697 24300 ft 471 kts 338°
2026-05-07 09:44 -5.09301 106.13410 24690 ft 473 kts 338°
2026-05-07 09:44 -5.06258 106.12114 25075 ft 475 kts 338°
2026-05-07 09:44 -5.03242 106.10829 25449 ft 477 kts 338°
2026-05-07 09:45 -5.00175 106.09522 25806 ft 480 kts 338°
2026-05-07 09:45 -4.97095 106.08211 26160 ft 483 kts 338°
2026-05-07 09:45 -4.93989 106.06889 26524 ft 485 kts 338°
2026-05-07 09:45 -4.90874 106.05563 26865 ft 487 kts 338°
2026-05-07 09:46 -4.87730 106.04225 27217 ft 490 kts 338°
2026-05-07 09:46 -4.84620 106.02902 27561 ft 492 kts 338°
2026-05-07 09:46 -4.81463 106.01559 27911 ft 493 kts 338°
2026-05-07 09:46 -4.78300 106.00213 28227 ft 496 kts 338°
2026-05-07 09:47 -4.75116 105.98858 28516 ft 498 kts 338°
2026-05-07 09:47 -4.71916 105.97497 28816 ft 500 kts 338°
2026-05-07 09:47 -4.68706 105.96132 29087 ft 502 kts 338°
2026-05-07 09:47 -4.65483 105.94761 29378 ft 504 kts 338°
2026-05-07 09:48 -4.62254 105.93388 29764 ft 503 kts 338°
2026-05-07 09:48 -4.59035 105.92019 30184 ft 501 kts 338°
2026-05-07 09:48 -4.55833 105.90656 30620 ft 499 kts 339°
2026-05-07 09:48 -4.52645 105.89301 31000 ft 497 kts 338°
2026-05-07 09:49 -4.49459 105.87947 31373 ft 497 kts 338°
2026-05-07 09:49 -4.46325 105.86615 31800 ft 494 kts 338°
2026-05-07 09:49 -4.43171 105.85275 32287 ft 492 kts 338°
2026-05-07 09:49 -4.40019 105.83935 32634 ft 492 kts 338°
2026-05-07 09:50 -4.36861 105.82594 33016 ft 491 kts 338°
2026-05-07 09:50 -4.33720 105.81259 33440 ft 489 kts 338°
2026-05-07 09:50 -4.30567 105.79920 33820 ft 489 kts 338°
2026-05-07 09:50 -4.27431 105.78588 34149 ft 488 kts 338°
2026-05-07 09:51 -4.24358 105.77283 34616 ft 484 kts 338°
2026-05-07 09:51 -4.21270 105.75971 35049 ft 480 kts 338°
2026-05-07 09:51 -4.18189 105.74662 35376 ft 480 kts 338°
2026-05-07 09:51 -4.15120 105.73359 35713 ft 479 kts 338°
2026-05-07 09:52 -4.12045 105.72053 35777 ft 481 kts 338°
2026-05-07 09:52 -4.05838 105.69420 35800 ft 485 kts 338°
2026-05-07 09:53 -3.99632 105.66786 35808 ft 489 kts 338°
2026-05-07 09:53 -3.93357 105.64123 35791 ft 489 kts 338°
2026-05-07 09:54 -3.88160 105.61917 35803 ft 486 kts 338°
2026-05-07 09:54 -3.81946 105.59280 35805 ft 483 kts 338°
2026-05-07 09:55 -3.75770 105.56659 35806 ft 480 kts 338°
2026-05-07 09:55 -3.69620 105.54051 35790 ft 479 kts 338°
2026-05-07 09:56 -3.63474 105.51445 35806 ft 479 kts 338°
2026-05-07 09:56 -3.57371 105.48857 35801 ft 480 kts 338°
2026-05-07 09:57 -3.51190 105.46236 35817 ft 485 kts 338°
2026-05-07 09:57 -3.44947 105.43591 35811 ft 489 kts 338°
2026-05-07 09:58 -3.38659 105.40926 35805 ft 492 kts 338°
2026-05-07 09:58 -3.32346 105.38250 35807 ft 493 kts 338°
2026-05-07 09:59 -3.26023 105.35572 35805 ft 493 kts 338°
2026-05-07 09:59 -3.19736 105.32908 35805 ft 492 kts 339°
2026-05-07 10:00 -3.13428 105.30235 35795 ft 491 kts 338°
2026-05-07 10:00 -3.07143 105.27573 35810 ft 490 kts 338°
2026-05-07 10:01 -3.00869 105.24916 35802 ft 488 kts 338°
2026-05-07 10:01 -2.94610 105.22266 35808 ft 487 kts 338°
2026-05-07 10:02 -2.88366 105.19623 35806 ft 486 kts 338°
2026-05-07 10:02 -2.82134 105.16984 35807 ft 486 kts 338°
2026-05-07 10:03 -2.75900 105.14346 35806 ft 486 kts 338°
2026-05-07 10:03 -2.69661 105.11706 35812 ft 487 kts 338°
2026-05-07 10:04 -2.63440 105.09092 35798 ft 488 kts 338°
2026-05-07 10:04 -2.57176 105.06468 35801 ft 488 kts 338°
2026-05-07 10:05 -2.50899 105.03822 35800 ft 488 kts 338°
2026-05-07 10:05 -2.44639 105.01172 35796 ft 488 kts 338°
2026-05-07 10:06 -2.38392 104.98526 35795 ft 488 kts 338°
2026-05-07 10:06 -2.32168 104.95891 35792 ft 488 kts 338°
2026-05-07 10:07 -2.25917 104.93245 35790 ft 487 kts 338°
2026-05-07 10:07 -2.19669 104.90601 35792 ft 487 kts 338°
2026-05-07 10:08 -2.13459 104.87974 35791 ft 487 kts 338°
2026-05-07 10:08 -2.07224 104.85336 35791 ft 486 kts 338°
2026-05-07 10:09 -2.00997 104.82702 35790 ft 486 kts 338°
2026-05-07 10:09 -1.94756 104.80062 35792 ft 486 kts 338°
2026-05-07 10:10 -1.88530 104.77428 35788 ft 486 kts 338°
2026-05-07 10:10 -1.82299 104.74793 35788 ft 486 kts 338°
2026-05-07 10:11 -1.76056 104.72153 35788 ft 487 kts 338°
2026-05-07 10:11 -1.69813 104.69513 35787 ft 487 kts 338°
2026-05-07 10:12 -1.63597 104.66884 35794 ft 488 kts 338°
2026-05-07 10:12 -1.57337 104.64237 35791 ft 489 kts 338°
2026-05-07 10:13 -1.51062 104.61584 35789 ft 489 kts 338°
2026-05-07 10:13 -1.44779 104.58928 35791 ft 490 kts 338°
2026-05-07 10:14 -1.38534 104.56288 35788 ft 490 kts 338°
2026-05-07 10:14 -1.32255 104.53634 35788 ft 490 kts 338°
2026-05-07 10:15 -1.25943 104.50965 35789 ft 490 kts 338°
2026-05-07 10:15 -1.19640 104.48301 35787 ft 490 kts 338°
2026-05-07 10:16 -1.13396 104.45662 35786 ft 491 kts 338°
2026-05-07 10:16 -1.07104 104.43004 35787 ft 490 kts 338°
2026-05-07 10:17 -1.00791 104.40343 35784 ft 490 kts 338°
2026-05-07 10:17 -0.94506 104.37681 35786 ft 490 kts 338°
2026-05-07 10:18 -0.88264 104.35040 35783 ft 491 kts 338°
2026-05-07 10:18 -0.81966 104.32378 35782 ft 491 kts 338°
2026-05-07 10:19 -0.75678 104.29721 35784 ft 491 kts 338°
2026-05-07 10:19 -0.69390 104.27064 35779 ft 491 kts 338°
2026-05-07 10:19 -0.66209 104.25720 35065 ft 503 kts 338°
2026-05-07 10:20 -0.62988 104.24358 34506 ft 500 kts 338°
2026-05-07 10:20 -0.59790 104.23007 33981 ft 496 kts 339°
2026-05-07 10:20 -0.56612 104.21817 33396 ft 491 kts 343°
2026-05-07 10:20 -0.53334 104.20928 32850 ft 486 kts 349°
2026-05-07 10:21 -0.50035 104.20278 32336 ft 481 kts 350°
2026-05-07 10:21 -0.46759 104.19657 31825 ft 477 kts 350°
2026-05-07 10:21 -0.43510 104.19041 31322 ft 473 kts 350°
2026-05-07 10:21 -0.40290 104.18423 30817 ft 470 kts 350°
2026-05-07 10:22 -0.37093 104.17800 30305 ft 467 kts 350°
2026-05-07 10:22 -0.33910 104.17173 29793 ft 464 kts 350°
2026-05-07 10:22 -0.30749 104.16546 29211 ft 461 kts 350°
2026-05-07 10:22 -0.27612 104.15921 28683 ft 457 kts 350°
2026-05-07 10:23 -0.24506 104.15302 28182 ft 453 kts 350°
2026-05-07 10:23 -0.21426 104.14689 27670 ft 450 kts 350°
2026-05-07 10:23 -0.18361 104.14079 27185 ft 446 kts 350°
2026-05-07 10:23 -0.15325 104.13475 26702 ft 442 kts 350°
2026-05-07 10:24 -0.12317 104.12877 26223 ft 439 kts 350°
2026-05-07 10:24 -0.09323 104.12281 25751 ft 437 kts 350°
2026-05-07 10:24 -0.06352 104.11691 25264 ft 434 kts 350°
2026-05-07 10:24 -0.03384 104.11101 24790 ft 432 kts 350°
2026-05-07 10:25 -0.00443 104.10516 24323 ft 430 kts 350°
2026-05-07 10:25 0.02489 104.09934 23861 ft 428 kts 350°
2026-05-07 10:25 0.05406 104.09353 23390 ft 427 kts 350°
2026-05-07 10:25 0.08276 104.08783 22850 ft 425 kts 350°
2026-05-07 10:26 0.11166 104.08208 22379 ft 421 kts 350°
2026-05-07 10:26 0.14026 104.07639 21911 ft 418 kts 350°
2026-05-07 10:26 0.16875 104.07073 21456 ft 415 kts 350°
2026-05-07 10:26 0.19675 104.06516 21255 ft 405 kts 350°
2026-05-07 10:27 0.22405 104.05973 21077 ft 395 kts 350°
2026-05-07 10:27 0.25069 104.05443 20911 ft 385 kts 350°
2026-05-07 10:27 0.27666 104.04926 20719 ft 376 kts 350°
2026-05-07 10:27 0.30205 104.04422 20480 ft 369 kts 350°
2026-05-07 10:28 0.32692 104.03930 20102 ft 366 kts 351°
2026-05-07 10:28 0.35178 104.03437 19787 ft 362 kts 351°
2026-05-07 10:28 0.37632 104.02951 19467 ft 358 kts 351°
2026-05-07 10:28 0.40067 104.02468 19154 ft 354 kts 351°
2026-05-07 10:29 0.42471 104.01992 18842 ft 350 kts 351°
2026-05-07 10:29 0.44842 104.01522 18535 ft 346 kts 351°
2026-05-07 10:29 0.47191 104.01056 18227 ft 342 kts 351°
2026-05-07 10:30 0.51807 104.00144 17589 ft 334 kts 351°
2026-05-07 10:30 0.54085 103.99695 17286 ft 331 kts 351°
2026-05-07 10:30 0.56325 103.99252 17094 ft 324 kts 351°
2026-05-07 10:30 0.58528 103.98815 16903 ft 323 kts 351°
2026-05-07 10:31 0.60756 103.98372 16658 ft 329 kts 351°
2026-05-07 10:31 0.63015 103.97924 16365 ft 333 kts 351°
2026-05-07 10:31 0.65257 103.97478 16080 ft 333 kts 351°
2026-05-07 10:31 0.67531 103.97027 15790 ft 332 kts 351°
2026-05-07 10:32 0.69794 103.96578 15500 ft 331 kts 351°
2026-05-07 10:32 0.72047 103.96199 15193 ft 324 kts
2026-05-07 10:32 0.74235 103.96507 14914 ft 314 kts 21°
2026-05-07 10:32 0.76242 103.97322 14668 ft 310 kts 25°
2026-05-07 10:33 0.78222 103.98178 14389 ft 310 kts 25°
2026-05-07 10:33 0.80203 103.99038 14126 ft 310 kts 25°
2026-05-07 10:33 0.82181 103.99893 13838 ft 310 kts 25°
2026-05-07 10:33 0.84167 104.00747 13569 ft 311 kts 25°
2026-05-07 10:34 0.86132 104.01586 13270 ft 311 kts 24°
2026-05-07 10:34 0.88122 104.02432 12993 ft 310 kts 25°
2026-05-07 10:34 0.90111 104.03278 12708 ft 309 kts 24°
2026-05-07 10:34 0.92092 104.04118 12437 ft 308 kts 24°
2026-05-07 10:35 0.94064 104.04952 12168 ft 307 kts 24°
2026-05-07 10:35 0.96030 104.05784 11885 ft 306 kts 24°
2026-05-07 10:35 0.97991 104.06613 11629 ft 305 kts 24°
2026-05-07 10:35 0.99948 104.07440 11364 ft 304 kts 24°
2026-05-07 10:36 1.01895 104.08264 11098 ft 303 kts 24°
2026-05-07 10:36 1.03832 104.09082 10830 ft 302 kts 24°
2026-05-07 10:36 1.05761 104.09897 10567 ft 300 kts 24°
2026-05-07 10:36 1.07682 104.10708 10303 ft 297 kts 24°
2026-05-07 10:37 1.08934 104.11237 10133 ft 294 kts 24°
2026-05-07 10:37 1.11400 104.12278 9778 ft 286 kts 24°
2026-05-07 10:37 1.13217 104.13044 9508 ft 280 kts 24°
2026-05-07 10:37 1.15005 104.13803 9245 ft 277 kts 24°
2026-05-07 10:38 1.16197 104.14311 9093 ft 276 kts 24°
2026-05-07 10:38 1.17939 104.15054 8850 ft 274 kts 24°
2026-05-07 10:38 1.19688 104.15801 8620 ft 273 kts 24°
2026-05-07 10:38 1.21433 104.16546 8373 ft 272 kts 24°
2026-05-07 10:39 1.23207 104.17164 8061 ft 272 kts
2026-05-07 10:39 1.25112 104.17272 7822 ft 276 kts
2026-05-07 10:39 1.27049 104.17229 7556 ft 280 kts 359°
2026-05-07 10:39 1.28994 104.17176 7304 ft 280 kts 359°
2026-05-07 10:40 1.30941 104.17137 7036 ft 280 kts
2026-05-07 10:40 1.32876 104.17114 6777 ft 275 kts
2026-05-07 10:40 1.34774 104.17104 6529 ft 270 kts
2026-05-07 10:40 1.36641 104.17101 6292 ft 268 kts
2026-05-07 10:41 1.38503 104.17107 6057 ft 267 kts
2026-05-07 10:41 1.40363 104.17097 5808 ft 266 kts
2026-05-07 10:41 1.42164 104.17076 5561 ft 260 kts
2026-05-07 10:41 1.44009 104.17053 5335 ft 264 kts
2026-05-07 10:42 1.45857 104.17030 5107 ft 267 kts
2026-05-07 10:42 1.47694 104.17008 4868 ft 266 kts
2026-05-07 10:42 1.49544 104.16988 4639 ft 265 kts
2026-05-07 10:42 1.51384 104.16970 4388 ft 264 kts
2026-05-07 10:43 1.53213 104.16930 4144 ft 260 kts 354°
2026-05-07 10:43 1.54882 104.16363 4039 ft 256 kts 324°
2026-05-07 10:43 1.56071 104.15024 4002 ft 261 kts 298°
2026-05-07 10:43 1.56837 104.13339 3739 ft 269 kts 291°
2026-05-07 10:44 1.57506 104.11602 3371 ft 264 kts 287°
2026-05-07 10:44 1.57705 104.09824 2996 ft 258 kts 259°
2026-05-07 10:44 1.56992 104.08224 2620 ft 254 kts 227°
2026-05-07 10:44 1.55620 104.07103 2533 ft 252 kts 213°
2026-05-07 10:45 1.54162 104.06205 2489 ft 239 kts 209°
2026-05-07 10:45 1.52765 104.05478 2526 ft 213 kts 204°
2026-05-07 10:45 1.51472 104.04905 2504 ft 194 kts 202°
2026-05-07 10:45 1.50246 104.04378 2529 ft 188 kts 202°
2026-05-07 10:46 1.49080 104.03876 2340 ft 177 kts 202°
2026-05-07 10:46 1.48004 104.03412 2131 ft 161 kts 202°
2026-05-07 10:46 1.47026 104.02990 1977 ft 152 kts 201°
2026-05-07 10:46 1.46051 104.02568 1785 ft 153 kts 201°
2026-05-07 10:47 1.45074 104.02146 1578 ft 152 kts 202°
2026-05-07 10:47 1.44102 104.01727 1369 ft 152 kts 201°
2026-05-07 10:47 1.43126 104.01313 1153 ft 152 kts 204°
2026-05-07 10:47 1.42168 104.00900 959 ft 150 kts 197°
2026-05-07 10:48 1.41228 104.00472 791 ft 149 kts 207°
2026-05-07 10:48 1.40273 104.00074 641 ft 150 kts 200°
2026-05-07 10:48 1.39338 103.99643 450 ft 149 kts 201°
2026-05-07 10:48 1.38389 103.99237 236 ft 147 kts 203°
2026-05-07 10:49 1.37447 103.98820 55 ft 147 kts 202°
2026-05-07 10:49 1.36551 103.98448 31 ft 125 kts 204°
2026-05-07 10:49 1.35976 103.98205 31 ft 50 kts 202°
2026-05-07 10:49 1.35755 103.98122 33 ft 5 kts 200°
2026-05-07 10:50 1.35711 103.98117 33 ft 11 kts 184°
2026-05-07 10:50 1.35590 103.98111 35 ft 13 kts 176°
2026-05-07 10:50 1.35550 103.98120 35 ft 2 kts 166°
2026-05-07 10:50 1.35534 103.98124 35 ft 3 kts 165°
2026-05-07 10:51 1.35526 103.98126 35 ft 0 kts 165°
2026-05-07 10:52 1.35484 103.98131 35 ft 13 kts 173°
2026-05-07 10:52 1.35439 103.98135 35 ft 0 kts 175°
2026-05-07 10:52 1.35399 103.98137 35 ft 13 kts 184°
2026-05-07 10:53 1.35345 103.98144 35 ft 5 kts 154°
2026-05-07 10:53 1.35320 103.98181 34 ft 9 kts 81°
2026-05-07 10:53 1.35335 103.98216 33 ft 8 kts 52°
2026-05-07 10:53 1.35357 103.98293 33 ft 13 kts 127°
2026-05-07 10:54 1.35285 103.98301 33 ft 7 kts 201°
2026-05-07 10:54 1.35250 103.98286 34 ft 9 kts 203°
2026-05-07 10:54 1.35220 103.98274 34 ft 0 kts 194°
2026-05-07 10:55 1.35219 103.98274 34 ft 1 kts 194°
2026-05-07 10:55 1.35197 103.98286 32 ft 8 kts 145°
2026-05-07 10:55 1.35172 103.98318 33 ft 7 kts 111°
2026-05-07 10:56 1.35162 103.98344 33 ft 7 kts 113°
2026-05-07 10:56 1.35157 103.98355 33 ft 0 kts 112°